INNOSAT 16 (RS92S7)

Last updated on Tue Aug 25 2026 00:03:14 GMT+0000 (Coordinated Universal Time)

1 64878U 25155C 26236.60044400 .00005396 00000+0 21183-3 0 9998 2 64878 97.4630 203.5694 0008732 312.6499 47.4003 15.26114000 91106
UTC large
Height (km)
Speed (km/s)
/
Latitude / Longitude
Inclination (degrees)
Orbital Period (minutes)
Azimuth
Elevation
Range (km)
Doppler Factor

Next 0 passes for location: London (51.5072 / 0.1276)

No passes found over London.
INNOSAT 16 (RS92S7)